Showing default

GALAXY 35, 54741

Orbit data source: Space-Track

GALAXY 35, 54741 is a payload satellite owned by Intelsat SA (US) (US) in GEO that was launched on Tue, 13 Dec 2022 UTC via an ARIANE 5ECA+ launch vehicle from the French Guiana (FRGUI). Payload-class satellites include a variety of spacecraft equipped with specific instruments for various scientific and technological missions. These include communications satellites like Starlink; space stations such as the ISS; scientific satellites like the Hubble; Earth observation satellites from companies like Planet Labs, Umbra, and HawkEye 360; GPS; miniature CubeSats for education and research; and military/defense satellites.

Loading next visibility...
Identifier
54741, 2022-170A
Orbit
GEO
Country
Flag of USUS
Related business
Manufacturer
Maxar Space Sol
Mission
Operational Commercial Communications
Bus & Motor
SSL-1300, R-4D
Mass
3,150 kg wet, ~2,000 kg dry
Launch date (UTC)
2022-12-13 (3 years ago)
Launch vehicle
ARIANE 5ECA+
Launch site
French Guiana (FRGUI)
Object type
Payload
Rocket body
Debris
Shape & HBR
Box + 2 Pan, 6.0 m
Radar Cross Section
30.995 m², Large (>1 m²)

Expand to show TLE details & history
Last TLE update: 13 hours ago

TLE from 13 hours ago
0 GALAXY 35
1 54741U 22170A   25257.56693816 -.00000176  00000-0  00000-0 0  9993
2 54741   0.0120 140.0261 0001967  39.6089 285.1556  1.00271927 10134
Epoch: 2025-09-14T13:36Z
TLE epoch observation values (Epoch: 2025-09-14T13:36:23.457Z)
Latitude
-0.02015°
Longitude
-93.1176°
Altitude
35,783.863 km
Speed
3.075 km/s
True Right ascension
06h 59m 03s
True Declination
0° 01' 12"
Sunlit
Object was in daylight at epoch
Visualization orbit readout
Latitude
Unknown
Longitude
Unknown
Altitude
Unknown
Speed
Unknown
Apparent Right ascension
Unknown
Apparent Declination
Unknown
Sunlit
N/A
Visualization observer readout
Local Sidereal Time
19:06:35
Azimuth
Unknown
Elevation
Unknown
Doppler factor
Unknown
Orbital elements
Apogee altitude
35,795.92 km
Perigee altitude
35,779.332 km
Semi-major axis
42,165.763 km
Eccentricity
0.0002
Inclination
0.012°
RAAN
140.0261°
Arg. of periapsis
39.6089°
True anomaly
285.13384°
Mean anomaly
285.1556°
Eccentric anomaly
285.14472°
Mean motion
0.25067 °/min
Orbital period
1,436.15 mins
BSTAR
0
Loading maneuver chart data...
Computing Atmospheric mass density...
Loading historical data...
Loading historical data...
Loading historical data...
Loading historical data...
Loading historical data...
Loading historical data...
Loading historical data...
Other satellites on launch #170 in the year 2022 (2022-12-13 UTC)

Documentation

Showing up to 5 results
|